Location: Emblem
(62.4273°N, 6.4710°E)
Time: 07:29:56
(UTC+02:00)

Transit 2A - Pass Details

Date: 05 March 2024
Orbit: 596 x 956 km, 66.7° (Epoch: 24 April)

Event Time Altitude Azimuth Distance (km) Brightness Sun altitude
Rises 20:43:06 0° 250° (WSW) 2,846 9.7 -18.2°
Reaches altitude 10° 20:45:18 10° 254° (WSW) 1,957 8.8 -18.5°
Maximum altitude 20:49:39 67° 337° (NNW) 685 5.9 -18.9°
Enters shadow 20:52:42 21° 57° (ENE) 1,465 7.2 -19.3°
